Weather History for KMIW - March, 2012

Change the Weather History Date:

Wednesday, March 21, 2012

  Actual Average Record
Temperature  
Mean Temperature 64 °F 39 °F  
Max Temperature 69 °F 49 °F 69 °F (2012)
Min Temperature 58 °F 29 °F 7 °F (2013)
Degree Days  
Heating Degree Days 1 26  
Month to date heating degree days 340 656  
Since 1 July heating degree days 4956 6059  
Cooling Degree Days 0 0  
Month to date cooling degree days 18 0  
Year to date cooling degree days 18 0  
Growing Degree Days 13 (Base 50)    
Moisture  
Dew Point 57 °F    
Average Humidity 80    
Maximum Humidity 93    
Minimum Humidity 66    
Precipitation  
Precipitation 0.06 in 0.06 in 0.51 in (2007)
Month to date precipitation 0.48 1.17  
Year to date precipitation 1.31  
Sea Level Pressure  
Sea Level Pressure 29.96 in    
Wind  
Wind Speed 9 mph (SE)    
Max Wind Speed 18 mph    
Max Gust Speed 22 mph    
Visibility 10 miles    
Events Rain    
T = Trace of Precipitation, MM = Missing Value Source: NWS Daily Summary

Daily Weather History Graph

Daily Weather History Graph

Search for Another Location

Airport or City:

Trip Planner

Search our weather history database for the weather conditions in past years. The results will help you decide how hot, cold, wet, or windy it might be!

Date:

Astronomy

Mar. 21, 2012 Rise Set
Actual Time 7:12 AM CDT 7:25 PM CDT
Civil Twilight 6:44 AM CDT 7:53 PM CDT
Nautical Twilight 6:11 AM CDT 8:26 PM CDT
Astronomical Twilight 5:38 AM CDT 8:59 PM CDT
Moon 6:23 AM CDT (3/21) 6:53 PM CDT (3/21)
Length of Visible Light 13h 09m
Length of Day
12h 13m
Waning Crescent, 1% of the Moon is Illuminated
Mar 21
Waning Crescent
Mar 22
New
Mar 30
First Quarter
Apr 6
Full
Apr 13
Last Quarter

Hourly Weather History & Observations

Time (CDT) Temp. Dew Point Humidity Pressure Visibility Wind Dir Wind Speed Gust Speed Precip Events Conditions
12:53 AM 61.0 °F 55.9 °F 83% 29.91 in 10.0 mi South 11.5 mph - 0.00 in Rain Light Rain
1:53 AM 60.1 °F 55.9 °F 86% 29.91 in 10.0 mi South 5.8 mph - 0.01 in   Overcast
2:53 AM 59.0 °F 55.9 °F 90% 29.91 in 10.0 mi SE 5.8 mph - N/A   Mostly Cloudy
3:53 AM 57.9 °F 55.9 °F 93% 29.91 in 10.0 mi SSE 6.9 mph - 0.00 in   Overcast
4:53 AM 57.9 °F 55.9 °F 93% 29.90 in 10.0 mi SE 10.4 mph - N/A   Overcast
5:53 AM 59.0 °F 55.9 °F 90% 29.91 in 10.0 mi SSE 11.5 mph - 0.00 in Rain Light Rain
6:53 AM 59.0 °F 57.0 °F 93% 29.93 in 10.0 mi SSE 11.5 mph - 0.00 in Rain Light Rain
7:53 AM 59.0 °F 55.9 °F 90% 29.97 in 10.0 mi SSE 15.0 mph - 0.04 in Rain Light Rain
8:53 AM 60.1 °F 57.0 °F 90% 29.99 in 10.0 mi SSE 12.7 mph - 0.00 in   Partly Cloudy
9:53 AM 61.0 °F 57.9 °F 90% 29.99 in 10.0 mi SSE 4.6 mph - N/A   Mostly Cloudy
10:53 AM 62.1 °F 57.9 °F 86% 29.99 in 10.0 mi SSE 8.1 mph - 0.01 in   Clear
11:53 AM 64.0 °F 57.9 °F 80% 29.98 in 10.0 mi Variable 4.6 mph - N/A   Clear
12:53 PM 66.0 °F 57.9 °F 75% 29.97 in 10.0 mi SSE 13.8 mph - N/A   Scattered Clouds
1:53 PM 66.9 °F 57.9 °F 73% 29.97 in 10.0 mi South 6.9 mph - 0.00 in   Mostly Cloudy
2:53 PM 68.0 °F 57.9 °F 70% 29.97 in 10.0 mi SSE 9.2 mph - N/A   Mostly Cloudy
3:53 PM 69.1 °F 57.9 °F 68% 29.96 in 10.0 mi SE 6.9 mph - N/A   Mostly Cloudy
4:53 PM 68.0 °F 57.9 °F 70% 29.97 in 10.0 mi SSE 5.8 mph - N/A   Mostly Cloudy
5:53 PM 68.0 °F 59.0 °F 73% 29.97 in 10.0 mi Calm Calm - N/A   Mostly Cloudy
6:53 PM 66.0 °F 61.0 °F 84% 29.97 in 10.0 mi NNW 3.5 mph - N/A   Mostly Cloudy
7:53 PM 63.0 °F 59.0 °F 87% 29.97 in 10.0 mi NNE 5.8 mph - N/A   Clear
9:53 PM 63.0 °F 57.9 °F 84% 29.97 in 10.0 mi NE 11.5 mph - N/A   Overcast
10:53 PM 63.0 °F 57.9 °F 84% 29.96 in 10.0 mi ENE 15.0 mph - N/A   Overcast
11:53 PM 63.0 °F 57.9 °F 84% 29.99 in 10.0 mi ESE 5.8 mph - 0.00 in Rain Light Rain